EW3585 Weather Reports


Display with metric or nautical units.
time (UTC)temp
F
wind
direction
speed
MPH
gust
MPH
rain 1hr
in
rain 24hr
in
rain mn
in
humidity
%
barometer
mb
20260505212544 79 293 5.0 12.0 0.00 0.00 0.00 43 1015.2
20260505212041 79 226 6.0 12.0 0.00 0.00 0.00 42 1015.3
20260505211709 80 205 4.0 12.0 0.00 0.00 0.00 42 1015.3
20260505211036 80 229 5.0 12.0 0.00 0.00 0.00 41 1015.4
20260505210531 80 246 3.0 7.0 0.00 0.00 0.00 43 1015.4
20260505210218 80 222 2.0 9.0 0.00 0.00 0.00 43 1015.6
20260505205522 80 225 3.0 11.0 0.00 0.00 0.00 44 1015.5
20260505205033 79 238 5.0 11.0 0.00 0.00 0.00 44 1015.6
20260505204648 79 294 6.0 11.0 0.00 0.00 0.00 42 1015.6
20260505204023 79 219 5.0 10.0 0.00 0.00 0.00 43 1015.6
20260505203527 79 238 3.0 12.0 0.00 0.00 0.00 44 1015.6
20260505203159 79 242 5.0 12.0 0.00 0.00 0.00 43 1015.6
20260505202538 79 280 5.0 11.0 0.00 0.00 0.00 43 1015.7
20260505202025 79 257 5.0 13.0 0.00 0.00 0.00 43 1015.8
20260505201630 79 221 4.0 14.0 0.00 0.00 0.00 42 1016.0
20260505201033 79 273 6.0 14.0 0.00 0.00 0.00 42 1015.7
20260505200521 79 310 7.0 13.0 0.00 0.00 0.00 43 1016.0
20260505200145 80 276 4.0 9.0 0.00 0.00 0.00 41 1016.1
20260505195526 79 221 5.0 9.0 0.00 0.00 0.00 43 1016.0
20260505195021 79 300 4.0 10.0 0.00 0.00 0.00 43 1016.0
20260505194619 79 271 5.0 10.0 0.00 0.00 0.00 43 1016.2
20260505194044 79 261 4.0 10.0 0.00 0.00 0.00 43 1016.3
20260505193522 79 232 5.0 15.0 0.00 0.00 0.00 42 1016.4
20260505193130 79 206 6.0 15.0 0.00 0.00 0.00 42 1016.5
20260505192529 78 289 6.0 14.0 0.00 0.00 0.00 41 1016.7
20260505192039 78 269 7.0 14.0 0.00 0.00 0.00 43 1016.7
20260505191626 78 263 5.0 11.0 0.00 0.00 0.00 43 1017.2
20260505191036 78 229 6.0 10.0 0.00 0.00 0.00 42 1017.1
20260505190541 78 232 3.0 8.0 0.00 0.00 0.00 46 1017.2
20260505190106 78 245 3.0 9.0 0.00 0.00 0.00 42 1017.1
20260505185524 78 202 3.0 9.0 0.00 0.00 0.00 44 1017.2
20260505185037 78 244 4.0 9.0 0.00 0.00 0.00 44 1017.3
20260505184613 78 263 4.0 10.0 0.00 0.00 0.00 46 1017.2
20260505184030 78 315 4.0 9.0 0.00 0.00 0.00 46 1017.4
20260505183525 78 219 5.0 9.0 0.00 0.00 0.00 46 1017.3
20260505183126 78 248 4.0 9.0 0.00 0.00 0.00 47 1017.3
20260505182538 78 235 4.0 9.0 0.00 0.00 0.00 45 1017.4
20260505182040 77 213 4.0 9.0 0.00 0.00 0.00 47 1017.3
20260505181558 77 247 3.0 7.0 0.00 0.00 0.00 47 1017.6
20260505181038 77 235 3.0 8.0 0.00 0.00 0.00 47 1017.5
20260505180531 77 261 4.0 12.0 0.00 0.00 0.00 47 1017.5
20260505180135 77 240 6.0 12.0 0.00 0.00 0.00 45 1017.7
20260505175538 77 306 5.0 14.0 0.00 0.00 0.00 49 1017.8
20260505175042 77 232 7.0 14.0 0.00 0.00 0.00 45 1017.8
20260505174631 77 287 6.0 16.0 0.00 0.00 0.00 44 1018.0
20260505174042 77 315 5.0 16.0 0.00 0.00 0.00 46 1018.2
20260505173541 77 257 5.0 16.0 0.00 0.00 0.00 45 1018.3
20260505173136 77 300 5.0 12.0 0.00 0.00 0.00 49 1018.5
20260505172517 77 192 3.0 12.0 0.00 0.00 0.00 51 1018.3
20260505172017 76 244 5.0 12.0 0.00 0.00 0.00 51 1018.3
20260505171630 76 200 5.0 12.0 0.00 0.00 0.00 50 1018.5
20260505171024 76 281 4.0 9.0 0.00 0.00 0.00 53 1018.4
20260505170541 76 198 4.0 10.0 0.00 0.00 0.00 50 1018.5
20260505170145 75 273 4.0 10.0 0.00 0.00 0.00 50 1018.6
20260505165530 75 290 3.0 9.0 0.00 0.00 0.00 54 1018.4
20260505165042 75 298 3.0 8.0 0.00 0.00 0.00 54 1018.4
20260505164641 75 208 3.0 9.0 0.00 0.00 0.00 49 1018.4
20260505164038 75 223 4.0 9.0 0.00 0.00 0.00 55 1018.5
20260505163519 74 227 4.0 9.0 0.00 0.00 0.00 54 1018.6
20260505163115 74 231 3.0 7.0 0.00 0.00 0.00 55 1018.5
20260505162538 74 324 4.0 7.0 0.00 0.00 0.00 55 1018.4
20260505162032 73 223 2.0 6.0 0.00 0.00 0.00 56 1018.6
20260505161643 73 277 3.0 8.0 0.00 0.00 0.00 58 1018.7
20260505161019 73 240 3.0 8.0 0.00 0.00 0.00 58 1018.7
20260505160524 72 207 2.0 6.0 0.00 0.00 0.00 61 1018.8
20260505160201 72 213 2.0 6.0 0.00 0.00 0.00 61 1019.0
20260505153116 71 226 1.0 4.0 0.00 0.00 0.00 64 1019.1
20260505152545 70 144 1.0 5.0 0.00 0.00 0.00 65 1019.1
20260505152037 70 284 1.0 5.0 0.00 0.00 0.00 65 1019.2
20260505151646 70 155 1.0 5.0 0.00 0.00 0.00 63 1019.2
20260505151029 69 210 1.0 5.0 0.00 0.00 0.00 64 1018.9
20260505150537 69 217 2.0 5.0 0.00 0.00 0.00 67 1019.2
20260505150222 69 264 1.0 4.0 0.00 0.00 0.00 66 1019.2
20260505140529 64 319 1.0 3.0 0.00 0.00 0.00 74 1018.8
20260505140226 64 321 1.0 3.0 0.00 0.00 0.00 75 1018.7
20260505130200 61 258 3.0 5.0 0.00 0.00 0.00 81 1018.6
20260505125019 60 209 2.0 5.0 0.00 0.00 0.00 83 1018.4
20260505124652 60 254 2.0 7.0 0.00 0.00 0.00 83 1018.4
20260505124027 59 232 2.0 7.0 0.00 0.00 0.00 82 1018.2
20260505123548 59 258 3.0 7.0 0.00 0.00 0.00 83 1018.5
20260505123129 59 252 2.0 7.0 0.00 0.00 0.00 84 1018.6
20260505122543 59 232 3.0 7.0 0.00 0.00 0.00 83 1018.4
20260505122028 58 225 3.0 5.0 0.00 0.00 0.00 83 1018.6
20260505121637 58 205 2.0 4.0 0.00 0.00 0.00 84 1018.5
20260505121018 57 196 2.0 4.0 0.00 0.00 0.00 84 1018.1
20260505120525 57 211 2.0 4.0 0.00 0.00 0.00 87 1018.3
20260505120137 56 190 0.0 3.0 0.00 0.00 0.00 89 1018.2
20260505115527 55 190 1.0 4.0 0.00 0.00 0.00 90 1018.2
20260505115040 55 190 2.0 4.0 0.00 0.00 0.00 95 1018.1
20260505114637 54 169 1.0 3.0 0.00 0.00 0.00 96 1017.9
20260505114016 54 355 0.0 2.0 0.00 0.00 0.00 96 1017.8
20260505113522 53 355 0.0 2.0 0.00 0.00 0.00 98 1017.7
20260505113141 53 355 0.0 0.0 0.00 0.00 0.00 98 1017.6
20260505112517 52 355 0.0 0.0 0.00 0.00 0.00 97 1017.5
20260505112027 52 355 0.0 0.0 0.00 0.00 0.00 97 1017.7
20260505111616 51 355 0.0 0.0 0.00 0.00 0.00 97 1017.8
20260505111016 51 355 0.0 0.0 0.00 0.00 0.00 97 1017.7
20260505110521 51 355 0.0 0.0 0.00 0.00 0.00 97 1017.7
20260505110142 51 355 0.0 0.0 0.00 0.00 0.00 96 1017.6
20260505102026 51 338 0.0 2.0 0.00 0.00 0.00 95 1017.4
20260505101626 51 338 0.0 1.0 0.00 0.00 0.00 95 1017.5
20260505101023 51 338 0.0 0.0 0.00 0.00 0.00 95 1017.6
20260505100539 51 339 0.0 0.0 0.00 0.00 0.00 95 1017.4
20260505100140 52 338 0.0 0.0 0.00 0.00 0.00 95 1017.5
20260505095522 52 338 0.0 2.0 0.00 0.00 0.00 94 1017.4
20260505095022 52 338 0.0 2.0 0.00 0.00 0.00 94 1017.5
20260505094639 52 338 0.0 0.0 0.00 0.00 0.00 94 1017.6
20260505094029 52 338 0.0 2.0 0.00 0.00 0.00 94 1017.4
20260505093519 52 338 0.0 2.0 0.00 0.00 0.00 93 1017.6
20260505093151 52 338 0.0 1.0 0.00 0.00 0.00 93 1017.5
20260505092541 52 338 0.0 0.0 0.00 0.00 0.00 93 1017.5
20260505092022 52 338 0.0 2.0 0.00 0.00 0.00 93 1017.5
20260505091647 53 338 0.0 2.0 0.00 0.00 0.00 94 1017.5
20260505091021 52 338 0.0 2.0 0.00 0.00 0.00 93 1017.3
20260505090516 52 338 0.0 1.0 0.00 0.00 0.00 93 1017.3
20260505090153 52 338 0.0 2.0 0.00 0.00 0.00 93 1017.6
20260505085522 52 339 0.0 2.0 0.00 0.00 0.00 92 1017.5
20260505085022 53 339 0.0 2.0 0.00 0.00 0.00 93 1017.3
20260505084651 53 338 0.0 2.0 0.00 0.00 0.00 92 1017.3
20260505084032 53 338 0.0 1.0 0.00 0.00 0.00 92 1017.2
20260505083519 53 338 0.0 2.0 0.00 0.00 0.00 93 1017.2
20260505083148 53 339 0.0 3.0 0.00 0.00 0.00 93 1017.2
20260505082535 53 339 0.0 3.0 0.00 0.00 0.00 94 1017.3
20260505082026 53 174 0.0 2.0 0.00 0.00 0.00 94 1017.2
20260505081702 53 174 0.0 2.0 0.00 0.00 0.00 94 1017.3
20260505081017 53 174 0.0 2.0 0.00 0.00 0.00 93 1017.2
20260505080540 54 174 1.0 2.0 0.00 0.00 0.00 94 1017.1
20260505080200 54 174 0.0 2.0 0.00 0.00 0.00 95 1017.0
20260505075528 54 174 0.0 3.0 0.00 0.00 0.00 95 1017.0
20260505075026 53 174 1.0 3.0 0.00 0.00 0.00 96 1017.1
20260505074636 53 177 1.0 2.0 0.00 0.00 0.00 93 1016.9
20260505074039 53 180 0.0 0.0 0.00 0.00 0.00 93 1017.0
20260505073531 53 180 0.0 0.0 0.00 0.00 0.00 93 1016.7
20260505073108 53 180 0.0 0.0 0.00 0.00 0.00 92 1016.8
20260505072532 53 180 0.0 0.0 0.00 0.00 0.00 91 1016.7
20260505072015 53 180 0.0 0.0 0.00 0.00 0.00 91 1016.8
20260505071636 54 180 0.0 0.0 0.00 0.00 0.00 91 1016.8
20260505071027 54 180 0.0 0.0 0.00 0.00 0.00 91 1016.8
20260505070540 54 180 0.0 0.0 0.00 0.00 0.00 91 1016.8
20260505070201 54 180 0.0 0.0 0.00 0.00 0.00 90 1016.9
20260505065527 54 180 0.0 0.0 0.00 0.00 0.00 90 1016.9
20260505065030 55 180 0.0 0.0 0.00 0.00 0.00 89 1016.9
20260505064635 55 180 0.0 2.0 0.00 0.00 0.00 89 1016.8
20260505064027 55 180 0.0 2.0 0.00 0.00 0.00 89 1016.8
20260505063545 55 180 0.0 2.0 0.00 0.00 0.00 89 1017.1
20260505063143 55 180 1.0 2.0 0.00 0.00 0.00 88 1016.8
20260505062518 55 180 0.0 2.0 0.00 0.00 0.00 87 1017.0
20260505062031 56 180 0.0 2.0 0.00 0.00 0.00 87 1016.9
20260505061639 56 180 1.0 2.0 0.00 0.00 0.00 87 1017.2
20260505061022 56 180 1.0 2.0 0.00 0.00 0.00 85 1017.2
20260505060521 56 180 0.0 2.0 0.00 0.00 0.00 85 1017.1
20260505060149 56 180 1.0 2.0 0.00 0.00 0.00 81 1017.1
20260505055540 57 180 0.0 0.0 0.00 0.00 0.00 82 1017.1
20260505055038 57 180 0.0 0.0 0.00 0.00 0.00 80 1017.0
20260505054623 57 180 0.0 0.0 0.00 0.00 0.00 79 1017.0
20260505054018 57 180 0.0 0.0 0.00 0.00 0.00 79 1017.0
20260505053527 57 180 0.0 0.0 0.00 0.00 0.00 80 1017.0
20260505053129 58 180 0.0 0.0 0.00 0.00 0.00 79 1017.0
20260505052533 58 180 0.0 0.0 0.00 0.00 0.00 77 1016.9
20260505052041 58 180 0.0 0.0 0.00 0.00 0.00 77 1017.1
20260505051643 58 180 0.0 0.0 0.00 0.00 0.00 76 1017.1
20260505051030 59 180 0.0 0.0 0.00 0.00 0.00 75 1017.2
20260505050537 59 180 0.0 0.0 0.00 0.00 0.00 74 1017.2
20260505050132 59 180 0.0 0.0 0.00 0.00 0.00 73 1017.2
20260505041705 61 180 0.0 1.0 0.00 0.00 0.00 69 1017.0
20260505041022 61 180 0.0 1.0 0.00 0.00 0.00 71 1017.2
20260505040537 61 180 0.0 1.0 0.00 0.00 0.00 72 1017.2
20260505040230 61 180 0.0 2.0 0.00 0.00 0.00 70 1017.0
20260505035524 62 180 0.0 1.0 0.00 0.00 0.00 69 1017.1
20260505035027 62 180 0.0 1.0 0.00 0.00 0.00 69 1017.2
20260505034630 62 180 0.0 1.0 0.00 0.00 0.00 69 1017.2
20260505034040 62 180 0.0 0.0 0.00 0.00 0.00 70 1017.1
20260505033532 62 180 0.0 0.0 0.00 0.00 0.00 70 1017.3
20260505033152 63 180 0.0 2.0 0.00 0.00 0.00 69 1017.3
20260505032531 63 180 0.0 2.0 0.00 0.00 0.00 70 1017.3
20260505032038 63 180 0.0 2.0 0.00 0.00 0.00 71 1017.2
20260505031632 63 180 0.0 2.0 0.00 0.00 0.00 71 1017.3
20260505031028 63 180 0.0 3.0 0.00 0.00 0.00 70 1017.3
20260505030529 63 180 0.0 3.0 0.00 0.00 0.00 68 1017.2
20260505030203 63 241 0.0 2.0 0.00 0.00 0.00 68 1017.3
20260505025519 63 241 0.0 2.0 0.00 0.00 0.00 68 1017.2
20260505025038 63 241 0.0 2.0 0.00 0.00 0.00 70 1017.2
20260505024619 63 241 0.0 0.0 0.00 0.00 0.00 70 1017.1
20260505024040 63 241 0.0 0.0 0.00 0.00 0.00 71 1017.3
20260505023521 63 241 0.0 0.0 0.00 0.00 0.00 71 1017.2
20260505023151 63 241 0.0 0.0 0.00 0.00 0.00 72 1017.2
20260505022519 63 241 0.0 0.0 0.00 0.00 0.00 74 1017.0
20260505022032 63 241 0.0 0.0 0.00 0.00 0.00 74 1017.1
20260505021641 64 241 0.0 0.0 0.00 0.00 0.00 72 1016.9
20260505021019 64 241 0.0 0.0 0.00 0.00 0.00 70 1017.0
20260505020539 64 241 0.0 0.0 0.00 0.00 0.00 69 1016.9
20260505020149 65 241 0.0 0.0 0.00 0.00 0.00 67 1016.8
20260505015529 65 241 0.0 0.0 0.00 0.00 0.00 66 1016.8
20260505015023 65 241 0.0 0.0 0.00 0.00 0.00 66 1016.7
20260505014644 66 241 0.0 0.0 0.00 0.00 0.00 66 1016.6
20260505014021 66 241 0.0 1.0 0.00 0.00 0.00 68 1016.7
20260505013523 66 241 0.0 4.0 0.00 0.00 0.00 67 1016.7
20260505013137 66 241 0.0 4.0 0.00 0.00 0.00 66 1016.6
20260505012538 66 241 0.0 4.0 0.00 0.00 0.00 66 1016.7
20260505012028 66 78 0.0 3.0 0.00 0.00 0.00 68 1016.5
20260505011651 66 78 0.0 3.0 0.00 0.00 0.00 68 1016.5
20260505011025 66 78 0.0 0.0 0.00 0.00 0.00 66 1016.4
20260505010544 67 78 0.0 0.0 0.00 0.00 0.00 65 1016.3
20260505010227 67 78 0.0 2.0 0.00 0.00 0.00 66 1016.3
20260505005520 67 78 0.0 2.0 0.00 0.00 0.00 67 1016.4
20260505005043 67 78 0.0 2.0 0.00 0.00 0.00 64 1016.2
20260505004625 67 78 0.0 1.0 0.00 0.00 0.00 63 1016.5
20260505004022 68 78 0.0 0.0 0.00 0.00 0.00 67 1016.2
20260505003537 68 78 0.0 0.0 0.00 0.00 0.00 66 1016.3
20260505003138 69 78 0.0 0.0 0.00 0.00 0.00 66 1016.2
20260505002540 69 78 0.0 0.0 0.00 0.00 0.00 62 1016.0
20260505002041 70 78 0.0 2.0 0.00 0.00 0.00 61 1015.9
20260505001654 70 78 0.0 2.0 0.00 0.00 0.00 61 1016.2
20260505001036 71 78 0.0 2.0 0.00 0.00 0.00 61 1016.0
20260505000529 71 51 0.0 2.0 0.00 0.00 0.00 61 1016.2
20260505000223 72 51 0.0 2.0 0.00 0.00 0.00 61 1016.2
20260504235528 72 229 0.0 2.0 0.00 0.00 0.00 57 1016.1
20260504235024 72 229 0.0 1.0 0.00 0.00 0.00 55 1016.1
20260504234649 73 229 0.0 1.0 0.00 0.00 0.00 56 1015.9
20260504234021 73 229 0.0 2.0 0.00 0.00 0.00 52 1015.8
20260504233529 73 229 0.0 2.0 0.00 0.00 0.00 51 1015.9
20260504233125 73 229 0.0 2.0 0.00 0.00 0.00 52 1015.9
20260504232529 74 229 0.0 2.0 0.00 0.00 0.00 52 1016.0
20260504232037 74 229 0.0 2.0 0.00 0.00 0.00 49 1016.0
20260504231703 74 229 1.0 3.0 0.00 0.00 0.00 48 1015.8
20260504231040 75 229 1.0 3.0 0.00 0.00 0.00 47 1016.0
20260504230525 75 234 1.0 3.0 0.00 0.00 0.00 50 1015.8
20260504230210 75 234 1.0 3.0 0.00 0.00 0.00 47 1015.8
20260504225526 76 242 1.0 4.0 0.00 0.00 0.00 46 1015.8
20260504225041 76 271 1.0 4.0 0.00 0.00 0.00 46 1015.8
20260504224701 76 253 1.0 3.0 0.00 0.00 0.00 45 1015.9
20260504224021 76 254 1.0 6.0 0.00 0.00 0.00 43 1015.8
20260504223539 76 259 1.0 5.0 0.00 0.00 0.00 45 1015.8
20260504223200 76 273 2.0 7.0 0.00 0.00 0.00 45 1016.0
20260504222527 76 267 2.0 7.0 0.00 0.00 0.00 45 1016.0
20260504222040 76 223 3.0 7.0 0.00 0.00 0.00 44 1015.9
20260504221711 76 206 4.0 7.0 0.00 0.00 0.00 44 1016.1
20260504221030 77 296 3.0 8.0 0.00 0.00 0.00 43 1016.0
20260504220522 77 255 3.0 6.0 0.00 0.00 0.00 43 1016.0
20260504220208 77 236 2.0 7.0 0.00 0.00 0.00 42 1015.9
20260504215532 76 277 3.0 8.0 0.00 0.00 0.00 43 1016.1
20260504215035 76 250 2.0 8.0 0.00 0.00 0.00 42 1016.0
20260504214654 76 248 1.0 3.0 0.00 0.00 0.00 43 1015.9
20260504214024 77 198 1.0 3.0 0.00 0.00 0.00 43 1015.9
20260504213531 77 198 1.0 4.0 0.00 0.00 0.00 43 1016.0
20260504213131 76 196 1.0 4.0 0.00 0.00 0.00 43 1016.0